Location: Newark
(47.5833°N, 8.1500°E)
Time: 18:49:14
(UTC+00:00)

Transit 2A - Pass Details

Date: 28 October 2020
Orbit: 595 x 964 km, 66.7° (Epoch: 01 December)

Event Time Altitude Azimuth Distance (km) Brightness Sun altitude
Rises 08:35:32 0° 326° (NW) 3,497 8.8 19.9°
Reaches altitude 10° 08:38:11 10° 330° (NNW) 2,502 8.1 20.2°
Maximum altitude 08:43:54 62° 51° (NE) 895 6.7 20.8°
Drops below altitude 10° 08:49:00 10° 132° (SE) 2,238 10.4 21.3°
Sets 08:51:15 0° 136° (SE) 3,101 10.7 21.6°
